Regional Weather Roundup
Issued by NWS Raleigh/Durham, NC

Home | Current Version | Previous Version | Text Only | Print | Product List | Glossary On
Versions: 1 2 3 4 5 6 7 8 9 10 11 12 13 14 15 16 17 18 19 20 21 22 23 24 25 26 27 28 29 30 31 32 33 34 35 36 37 38 39 40 41 42 43 44 45 46 47 48 49 50
000
ASUS42 KRAH 151010
RWRRAH
NORTH CAROLINA WEATHER ROUNDUP
NATIONAL WEATHER SERVICE RALEIGH NC
600 AM EDT MON SEP 15 2014

NOTE: "FAIR" INDICATES FEW OR NO CLOUDS BELOW 12,000 FEET WITH NO
SIGNIFICANT WEATHER AND/OR OBSTRUCTIONS TO VISIBILITY.

NCZ001-053-055-056-065-067-151100-
WESTERN NORTH CAROLINA

CITY           SKY/WX    TMP DP  RH WIND       PRES   REMARKS
ASHEVILLE      CLOUDY    61  60  97 CALM      30.25R FOG
JEFFERSON      FOG       55  55  97 CALM      30.26S VSB<1/4
HICKORY        CLOUDY    65  61  87 CALM      30.21S
RUTHERFORDTON  CLOUDY    63  63  98 CALM      30.23R FOG
MOUNT AIRY     CLOUDY    63  59  88 CALM      30.24S
BOONE          FOG       55  55 100 CALM      30.27R VSB 1
$$

NCZ021-022-025-041-071-084-088-151100-
CENTRAL NORTH CAROLINA

CITY           SKY/WX    TMP DP  RH WIND       PRES   REMARKS
CHARLOTTE      CLOUDY    66  62  87 CALM      30.21S
GREENSBORO     MOCLDY    62  60  93 N3        30.21S
WINSTON-SALEM  CLOUDY    62  58  86 CALM      30.22S
RALEIGH-DURHAM CLOUDY    64  59  83 CALM      30.23R
FORT BRAGG     CLOUDY    65  63  90 NE5       30.20R
FAYETTEVILLE   CLOUDY    66  63  90 NE7       30.20R
BURLINGTON     CLOUDY    64  59  83 CALM      30.21S
LAURINBURG     CLOUDY    67  64  90 NE3       30.21R
$$

NCZ011-015-027-028-043-044-047-080-103-151100-
NORTHEASTERN NORTH CAROLINA

CITY           SKY/WX    TMP DP  RH WIND       PRES   REMARKS
ROCKY MT-WILSO CLOUDY    63  60  90 CALM      30.22R
GREENVILLE     CLOUDY    64  63  94 CALM      30.22R
WASHINGTON     CLOUDY    63  61  92 N3        30.21R
ELIZABETH CITY CLOUDY    65  59  81 NW7       30.21R
MANTEO         CLOUDY    68  59  72 N7        30.20R
CAPE HATTERAS  CLOUDY    68  58  70 N8        30.18R
$$

NCZ078-087-090-091-093-098-101-151100-
SOUTHEASTERN NORTH CAROLINA

CITY           SKY/WX    TMP DP  RH WIND       PRES   REMARKS
LUMBERTON      CLOUDY    68  65  90 NE5       30.19R
GOLDSBORO      CLOUDY    65  64  98 CALM      30.19S
KINSTON        MOCLDY    65  63  94 CALM      30.22R
KENANSVILLE    CLOUDY    64  63  94 CALM      30.21S
NEW BERN       CLOUDY    68  62  81 NE6       30.21R
CHERRY POINT   CLOUDY    69  61  75 N9        30.20R
BEAUFORT       CLOUDY    69  63  81 N6        30.18R
JACKSONVILLE   CLOUDY    68  62  81 NE8       30.18S
WILMINGTON     CLOUDY    69  65  86 NE6       30.17S
$$




USA.gov is the U.S. government's official web portal to all federal, state and local government web resources and services.